Regional Weather Roundup
Issued by NWS

Home | Current Version | Previous Version | Graphics & Text | Print | Product List | Glossary On
Versions: 1 2 3 4 5 6 7 8 9 10 11 12 13 14 15 16 17 18 19 20 21 22 23 24 25 26 27
000
ASUS45 KBOI 300810
RWRID

IDAHO REGIONAL WEATHER ROUNDUP
NATIONAL WEATHER SERVICE BOISE ID
200 AM MDT MON MAY 30 2016

NOTE: "FAIR" INDICATES FEW OR NO CLOUDS BELOW 12000 FEET
WITH NO SIGNIFICANT WEATHER AND/OR OBSTRUCTIONS TO VISIBILITY

IDZ012-014-300900-
SOUTHWEST IDAHO


CITY           SKY/WX    TMP DP  RH WIND       PRES   REMARKS
BOISE          CLEAR     59  41  51 W10       30.03R
CALDWELL       CLEAR     58  41  53 SW6       30.05R
MOUNTAIN HOME  CLEAR     61  47  59 NW10      30.02R
$$

IDZ016-017-300900-
SOUTHCENTRAL IDAHO


CITY           SKY/WX    TMP DP  RH WIND       PRES   REMARKS
BURLEY         MOCLDY    56  45  66 SW8       30.03R
JEROME         CLOUDY    57  47  69 SE7       30.03S
TWIN FALLS     MOCLDY    57  43  59 S13       30.04R
$$

IDZ019>023-300900-
SOUTHEAST IDAHO


CITY           SKY/WX    TMP DP  RH WIND       PRES   REMARKS
IDAHO FALLS    CLOUDY    51  42  71 SW10      30.04S
POCATELLO      CLOUDY    51  43  74 CALM      30.04F
REXBURG        CLEAR     55  39  54 S10       30.04R
$$

IDZ006-010-011-018-031-032-300900-
CENTRAL IDAHO MOUNTAINS


CITY           SKY/WX    TMP DP  RH WIND       PRES   REMARKS
MCCALL         CLEAR     43  38  82 CALM      30.11R
HAILEY         CLEAR     46  34  61 NW10      30.10R
STANLEY          N/A     38  27  64 S5        30.15R WCI  34
SALMON         PTCLDY    52  37  58 SE7       30.04R
CHALLIS        CLEAR     47  28  47 W3        30.06R
$$

IDZ002-004-006-007-026-300900-
NORTHERN IDAHO


CITY           SKY/WX    TMP DP  RH WIND       PRES   REMARKS
LEWISTON       CLOUDY    62  36  37 W12       30.08R
LOWELL           N/A     55  51  86 CALM      30.09R
COEUR D`ALENE  MOCLDY    50  36  57 NE6       30.06R
MULLAN PASS    MOCLDY    41  31  67 MISG      30.09R
$$




USA.gov is the U.S. government's official web portal to all federal, state and local government web resources and services.